Lapse_Rate
-1.3 -0.9 -0.4 0.2 0.4 0.4 1.2 1.2 2.2 4.5 4.1 5.0 6.1 5.9 5.6 6.3 6.5 6.7 7.1 6.8 6.9 6.9 7.4 8.0 8.4 8.7 9.0
-0.9 -1.4 -1.6 -0.9 -0.7 0.7 1.5 1.6 2.3 3.2 4.1 4.2 5.0 5.4 5.8 6.2 6.7 6.8 6.7 7.1 7.2 7.2 7.3 7.5 8.0 8.8 9.3
-0.0 -0.8 -0.9 0.3 0.6 0.8 1.5 1.3 2.2 3.0 3.7 4.4 5.2 5.9 6.2 6.5 6.9 7.3 7.7 7.5 6.8 7.0 7.0 7.0 7.9 8.6 9.3
1.8 1.8 1.8 1.6 1.6 2.2 2.4 2.4 2.2 2.6 3.0 3.4 4.1 4.5 4.9 5.4 6.0 6.3 6.4 6.6 6.9 6.6 6.4 6.6 6.8 7.4 9.0
2.3 2.4 2.1 2.6 2.9 2.6 2.9 2.4 2.4 1.5 2.2 1.9 2.3 2.6 3.3 3.3 3.3 4.4 5.5 6.1 6.4 6.5 6.4 6.7 7.1 8.6 9.2
-1.8 0.7 0.7 0.4 0.7 1.3 -0.1 0.5 1.2 1.1 0.8 1.6 1.9 1.9 2.3 2.3 2.9 4.5 5.3 5.6 6.0 6.4 6.7 7.9 9.0 9.1 9.1
1.1 0.9 1.5 1.7 -0.5 0.1 2.0 0.5 1.3 2.2 1.9 0.6 0.8 1.2 1.7 2.0 3.9 5.2 5.6 6.0 6.4 6.8 7.1 7.5 7.8 8.2 8.2
1.7 2.1 2.0 2.4 2.6 0.8 0.7 1.5 2.0 2.1 1.9 0.1 0.6 1.4 1.6 2.2 3.0 4.2 5.0 5.8 6.3 6.6 6.9 6.5 5.9 5.7 5.6
4.9 5.5 6.0 6.4 6.1 2.4 1.4 0.5 0.7 2.1 1.6 1.2 -0.0 -0.4 -0.1 -0.0 1.2 3.5 4.8 4.7 4.9 5.2 5.7 5.6 5.6 5.5 4.8
2.8 3.0 3.2 3.6 5.1 3.6 0.7 -1.4 -1.3 -0.2 1.3 0.1 -0.2 -0.4 -0.9 -1.2 -0.4 1.8 2.1 3.0 4.1 4.2 4.8 4.7 4.6 4.2 3.0
2.2 2.1 2.5 2.7 2.9 3.3 2.7 -2.1 -4.0 -2.1 2.5 2.6 1.2 3.5 3.4 0.9 -1.0 -0.0 1.9 2.4 2.8 2.5 2.7 3.5 3.9 4.3 0.9
2.6 1.7 1.8 1.4 1.1 2.0 2.9 2.5 2.8 2.6 3.7 3.7 3.1 2.2 3.8 3.8 2.6 -1.3 -1.2 1.7 1.7 1.0 1.4 2.1 3.0 3.6 4.4
1.4 0.9 0.4 -1.3 0.3 0.9 3.9 3.9 3.7 3.4 3.6 3.9 3.6 3.4 3.7 3.1 2.8 1.2 2.9 -1.7 1.0 -0.7 -0.3 -0.6 -0.5 0.7 1.3
0.9 0.5 -0.4 -0.4 3.5 2.8 2.3 2.2 1.6 -1.6 3.0 4.5 3.1 2.5 3.7 3.3 3.6 2.2 2.4 3.2 -1.9 -1.8 0.4 1.3 1.5 1.2 0.9
0.4 1.4 3.8 3.7 3.4 2.9 2.8 2.6 2.2 1.0 -1.2 -0.7 3.5 3.5 2.1 1.9 2.4 2.1 1.8 1.7 1.6 2.1 3.2 3.1 3.0 3.0 2.6
1.2 2.4 3.4 3.3 3.2 3.3 3.5 3.3 3.0 1.4 0.8 -1.8 -2.9 -0.4 0.0 1.4 3.2 2.0 2.1 2.2 2.5 2.7 2.8 4.1 4.2 3.1 3.3
-2.2 -1.1 -0.3 -0.0 3.8 3.6 4.1 3.9 2.5 0.4 0.7 -1.7 -4.1 -0.5 2.5 3.0 2.0 5.7 3.1 3.0 2.9 3.0 3.3 3.3 3.7 2.7 3.5
Wind_Speed
2 3 3 4 7 8 9 11 10 13 16 14 3 3 2 7 8 9 12 7 5 7 10 13 14 15 16
3 3 4 3 2 3 7 8 9 10 9 8 6 4 5 6 9 7 8 10 10 10 10 12 15 15 16
2 2 2 2 2 3 3 5 6 7 7 6 6 8 8 8 9 11 9 7 8 10 12 13 13 13 15
2 2 2 2 2 2 2 2 3 5 5 5 4 4 3 4 5 7 7 9 10 9 10 13 13 14 16
2 2 2 2 2 2 1 1 2 3 2 2 3 4 5 7 8 9 11 13 13 13 11 13 14 15 14
1 2 2 2 2 2 1 2 2 5 3 2 2 3 10 12 12 13 15 13 13 13 13 14 13 13 14
2 1 1 1 1 2 1 1 2 2 0 3 1 3 6 6 9 9 10 10 11 11 11 12 13 14 13
3 0 2 2 1 3 3 2 3 2 1 2 2 3 4 6 6 8 10 11 11 11 10 8 10 13 14
7 7 6 7 2 2 1 2 2 1 1 1 2 3 2 3 6 4 2 3 1 3 7 10 11 14 14
4 6 6 6 5 1 2 2 1 3 2 2 3 2 4 1 3 4 5 7 5 9 8 11 15 13 10
3 3 2 2 3 3 3 3 2 2 2 1 1 2 3 3 2 2 6 10 6 12 15 17 15 13 2
1 1 1 1 2 4 3 5 6 6 10 2 2 2 2 5 5 2 2 11 13 8 10 13 15 19 17
0 1 1 2 5 4 7 8 10 10 8 6 4 5 4 5 6 6 8 2 10 5 6 6 4 6 6
2 1 1 2 3 1 2 2 3 3 10 11 11 6 6 6 6 10 6 4 2 2 3 6 11 14 14
1 2 3 3 3 1 2 3 4 5 3 3 10 12 9 7 8 9 10 8 7 8 7 7 7 12 14
2 2 3 3 4 3 4 4 5 6 7 3 1 3 3 7 18 10 8 8 7 6 6 8 9 9 15
2 3 3 2 7 4 5 5 5 4 6 3 2 2 5 7 3 17 9 7 6 6 7 7 9 11 8
Wind_Direction
62 11 23 11 2 27 45 55 35 42 51 45 4 6 321 260 269 281 283 282 270 278 277 277 278 278 277
14 10 36 360 14 14 13 40 43 24 26 31 356 332 305 281 270 265 262 264 267 267 267 273 274 275 277
45 24 25 346 9 22 13 14 13 5 8 0 329 299 283 272 261 260 262 265 265 268 267 270 274 277 279
59 48 37 354 16 4 18 21 18 7 352 346 345 335 340 313 292 286 285 271 262 259 264 269 271 270 271
52 48 40 22 11 352 27 5 52 21 342 336 334 320 296 300 301 285 271 263 259 258 263 266 261 258 266
19 47 12 358 358 23 42 32 343 10 10 316 312 284 283 281 271 262 253 252 252 252 250 253 261 266 269
76 64 19 336 87 10 39 150 233 260 121 263 279 283 288 278 261 255 253 250 250 253 257 263 267 268 273
77 125 219 222 202 180 184 224 268 292 132 237 317 268 292 299 290 282 266 254 253 257 257 260 269 277 277
10 358 356 344 310 131 343 56 315 286 35 108 330 295 318 332 348 328 77 78 6 293 275 278 276 280 285
351 349 353 352 10 135 145 145 208 339 307 47 346 6 336 304 314 357 314 310 307 305 280 291 294 290 277
336 339 358 20 42 58 135 136 140 251 267 84 246 312 288 297 300 284 295 296 284 292 291 294 286 279 254
8 345 358 348 342 352 324 239 239 237 283 271 259 189 258 289 277 322 297 285 273 275 275 285 282 283 268
289 269 231 240 302 306 307 298 296 290 288 267 250 269 247 260 276 284 298 304 283 255 265 254 252 255 276
222 244 281 279 295 313 285 289 279 283 280 281 271 252 272 262 267 279 276 266 268 246 252 261 265 260 257
198 242 274 289 287 253 266 276 274 288 289 282 285 277 246 250 269 263 270 264 257 267 266 267 263 265 262
252 249 259 265 281 270 257 265 284 294 291 281 313 342 320 264 229 253 261 262 265 253 252 262 271 266 252
248 256 245 230 290 277 279 280 274 261 270 246 211 183 272 271 268 244 245 256 261 262 254 249 263 271 265